• In Uzbekistan
  • List of Countries
  • For 7 days
  • Water Temperature
  • Satellite Maps
  • Weather Map
  • Weather Widgets
  • user-avatar
    Login

    Hourly Weather Pszczeliny

    Today, 15 November, Thursday

    Time Temperature Precipitation Wind Pressure Humidity
    00:00 +4°C° 0.1 mm 3 mps 717 mmHg 89%
    01:00 +5°C° 0.1 mm 2 mps 717 mmHg 90%
    02:00 +6°C° 0 mm 1 mps 718 mmHg 91%
    03:00 +4°C° 0.1 mm 2 mps 718 mmHg 91%
    04:00 +4°C° 0.1 mm 2 mps 718 mmHg 91%
    05:00 +4°C° 0.1 mm 2 mps 718 mmHg 91%
    06:00 +4°C° 0.1 mm 2 mps 718 mmHg 91%
    07:00 +4°C° 0.1 mm 2 mps 718 mmHg 91%
    08:00 +4°C° 0 mm 2 mps 718 mmHg 91%
    09:00 +5°C° 0.1 mm 2 mps 718 mmHg 88%
    10:00 +4°C° 0.1 mm 3 mps 718 mmHg 85%
    11:00 +4°C° 0.1 mm 3 mps 718 mmHg 82%
    12:00 +5°C° 0.3 mm 3 mps 718 mmHg 79%
    13:00 +5°C° 0.3 mm 3 mps 718 mmHg 76%
    14:00 +5°C° 0.3 mm 3 mps 718 mmHg 73%
    15:00 +5°C° 0.3 mm 3 mps 718 mmHg 75%
    16:00 +4°C° 0.3 mm 3 mps 718 mmHg 78%
    17:00 +4°C° 0.3 mm 3 mps 718 mmHg 80%
    18:00 +3°C° 0.1 mm 3 mps 718 mmHg 82%
    19:00 +3°C° 0.1 mm 3 mps 718 mmHg 84%
    20:00 +2°C° 0.1 mm 3 mps 718 mmHg 86%
    21:00 +2°C° 0 mm 3 mps 718 mmHg 87%
    22:00 +2°C° 0 mm 3 mps 719 mmHg 87%
    23:00 +2°C° 0 mm 3 mps 719 mmHg 88%

    Tomorrow, 16 November, Friday

    Time Temperature Precipitation Wind Pressure Humidity
    00:00 +1°C° 0 mm 3 mps 719 mmHg 88%
    01:00 +1°C° 0 mm 3 mps 719 mmHg 87%
    02:00 +1°C° 0 mm 3 mps 720 mmHg 87%
    03:00 +1°C° 0 mm 3 mps 720 mmHg 87%
    04:00 +1°C° 0 mm 3 mps 720 mmHg 87%
    05:00 0°C° 0 mm 3 mps 720 mmHg 87%
    06:00 0°C° 0 mm 3 mps 720 mmHg 87%
    07:00 0°C° 0 mm 3 mps 721 mmHg 87%
    08:00 0°C° 0 mm 3 mps 721 mmHg 87%
    09:00 0°C° 0 mm 3 mps 721 mmHg 83%
    10:00 +1°C° 0 mm 3 mps 722 mmHg 80%
    11:00 +1°C° 0 mm 4 mps 722 mmHg 76%
    12:00 +1°C° 0 mm 4 mps 722 mmHg 71%
    13:00 +3°C° 0 mm 3 mps 722 mmHg 66%
    14:00 +3°C° 0 mm 3 mps 722 mmHg 61%
    15:00 +2°C° 0 mm 3 mps 722 mmHg 64%
    16:00 +1°C° 0 mm 3 mps 722 mmHg 67%
    17:00 0°C° 0 mm 3 mps 722 mmHg 70%
    18:00 -1°C° 0 mm 3 mps 722 mmHg 72%
    19:00 -1°C° 0 mm 3 mps 722 mmHg 73%
    20:00 -2°C° 0 mm 3 mps 722 mmHg 74%
    21:00 -2°C° 0 mm 3 mps 722 mmHg 74%
    22:00 -3°C° 0 mm 2 mps 722 mmHg 75%
    23:00 -3°C° 0 mm 2 mps 722 mmHg 75%

    Day after tomorrow, 17 November, Saturday

    Time Temperature Precipitation Wind Pressure Humidity
    00:00 -3°C° 0 mm 2 mps 723 mmHg 74%
    01:00 -4°C° 0 mm 2 mps 723 mmHg 74%
    02:00 -4°C° 0 mm 2 mps 723 mmHg 73%
    03:00 -4°C° 0 mm 2 mps 722 mmHg 72%
    04:00 -4°C° 0 mm 2 mps 722 mmHg 70%
    05:00 -4°C° 0 mm 2 mps 722 mmHg 69%
    06:00 -4°C° 0 mm 2 mps 722 mmHg 70%
    07:00 -3°C° 0 mm 2 mps 722 mmHg 71%
    08:00 -3°C° 0 mm 2 mps 722 mmHg 72%
    09:00 -2°C° 0 mm 3 mps 722 mmHg 69%
    10:00 -1°C° 0 mm 3 mps 722 mmHg 67%
    11:00 0°C° 0 mm 3 mps 722 mmHg 64%
    12:00 0°C° 0 mm 3 mps 722 mmHg 63%
    13:00 +1°C° 0 mm 3 mps 722 mmHg 61%
    14:00 +2°C° 0 mm 3 mps 722 mmHg 60%
    15:00 +2°C° 0 mm 2 mps 722 mmHg 65%
    16:00 +1°C° 0 mm 2 mps 721 mmHg 70%
    17:00 -2°C° 0 mm 2 mps 721 mmHg 75%
    18:00 -2°C° 0 mm 2 mps 721 mmHg 76%
    19:00 -2°C° 0 mm 2 mps 721 mmHg 77%
    20:00 -3°C° 0 mm 2 mps 721 mmHg 78%
    21:00 -3°C° 0 mm 2 mps 721 mmHg 78%
    22:00 -1°C° 0 mm 1 mps 721 mmHg 78%
    23:00 -1°C° 0 mm 1 mps 721 mmHg 78%

    18 November, Sunday

    Time Temperature Precipitation Wind Pressure Humidity
    00:00 -1°C° 0 mm 1 mps 720 mmHg 77%
    01:00 -1°C° 0 mm 1 mps 720 mmHg 77%
    02:00 -2°C° 0 mm 1 mps 719 mmHg 77%
    03:00 -2°C° 0 mm 1 mps 719 mmHg 77%
    04:00 -2°C° 0 mm 1 mps 718 mmHg 77%
    05:00 -2°C° 0 mm 1 mps 718 mmHg 77%
    06:00 -2°C° 0 mm 1 mps 717 mmHg 77%
    07:00 -2°C° 0 mm 1 mps 717 mmHg 77%
    08:00 -2°C° 0 mm 1 mps 717 mmHg 77%
    09:00 0°C° 0 mm 1 mps 717 mmHg 70%
    10:00 +1°C° 0 mm 1 mps 716 mmHg 63%
    11:00 +3°C° 0 mm 1 mps 716 mmHg 56%
    12:00 +3°C° 0 mm 1 mps 715 mmHg 53%
    13:00 +4°C° 0 mm 1 mps 715 mmHg 51%
    14:00 +4°C° 0 mm 1 mps 714 mmHg 49%
    15:00 +3°C° 0 mm 1 mps 714 mmHg 53%
    16:00 +2°C° 0 mm 1 mps 713 mmHg 56%
    17:00 0°C° 0 mm 1 mps 712 mmHg 60%
    18:00 0°C° 0 mm 1 mps 712 mmHg 60%
    19:00 0°C° 0 mm 1 mps 712 mmHg 60%
    20:00 0°C° 0 mm 1 mps 711 mmHg 60%
    21:00 0°C° 0.1 mm 1 mps 711 mmHg 63%
    22:00 0°C° 0.1 mm 1 mps 711 mmHg 66%
    23:00 -1°C° 0.1 mm 1 mps 710 mmHg 69%

    19 November, Monday

    Time Temperature Precipitation Wind Pressure Humidity
    00:00 -1°C° 0.1 mm 1 mps 710 mmHg 72%
    01:00 -1°C° 0.1 mm 1 mps 710 mmHg 75%
    02:00 -1°C° 0.1 mm 1 mps 710 mmHg 78%
    03:00 -1°C° 0.1 mm 1 mps 709 mmHg 80%
    04:00 -2°C° 0.1 mm 1 mps 709 mmHg 82%
    05:00 -2°C° 0.1 mm 1 mps 708 mmHg 84%
    06:00 -2°C° 0 mm 1 mps 708 mmHg 84%
    07:00 -2°C° 0 mm 1 mps 708 mmHg 83%
    08:00 -2°C° 0 mm 1 mps 708 mmHg 83%
    09:00 -1°C° 0 mm 1 mps 708 mmHg 76%
    10:00 +1°C° 0 mm 1 mps 708 mmHg 70%
    11:00 +2°C° 0 mm 1 mps 709 mmHg 64%
    12:00 +2°C° 0 mm 1 mps 708 mmHg 63%
    13:00 +3°C° 0 mm 1 mps 708 mmHg 61%
    14:00 +4°C° 0 mm 1 mps 708 mmHg 59%
    15:00 +2°C° 0 mm 1 mps 708 mmHg 65%
    16:00 +1°C° 0 mm 1 mps 708 mmHg 71%
    17:00 0°C° 0 mm 1 mps 708 mmHg 76%
    18:00 0°C° 0 mm 1 mps 708 mmHg 78%
    19:00 0°C° 0 mm 1 mps 708 mmHg 80%
    20:00 0°C° 0 mm 1 mps 708 mmHg 81%
    21:00 0°C° 0 mm 1 mps 708 mmHg 82%
    22:00 0°C° 0 mm 1 mps 708 mmHg 83%
    23:00 0°C° 0 mm 1 mps 708 mmHg 85%

    20 November, Tuesday

    Time Temperature Precipitation Wind Pressure Humidity
    00:00 0°C° 0 mm 1 mps 708 mmHg 86%
    01:00 0°C° 0 mm 1 mps 708 mmHg 88%
    02:00 -1°C° 0 mm 1 mps 708 mmHg 90%
    03:00 -1°C° 0 mm 1 mps 708 mmHg 91%
    04:00 -1°C° 0 mm 1 mps 708 mmHg 92%
    05:00 -1°C° 0 mm 1 mps 708 mmHg 92%
    06:00 -1°C° 0 mm 1 mps 707 mmHg 92%
    07:00 -1°C° 0 mm 1 mps 707 mmHg 91%
    08:00 0°C° 0 mm 1 mps 707 mmHg 91%
    09:00 +1°C° 0 mm 1 mps 707 mmHg 86%
    10:00 +1°C° 0 mm 2 mps 706 mmHg 81%
    11:00 +2°C° 0 mm 2 mps 706 mmHg 76%
    12:00 +2°C° 0.1 mm 2 mps 706 mmHg 76%
    13:00 +2°C° 0.1 mm 2 mps 705 mmHg 77%
    14:00 +2°C° 0.1 mm 3 mps 704 mmHg 77%
    15:00 +2°C° 0.1 mm 2 mps 704 mmHg 80%
    16:00 +2°C° 0.1 mm 2 mps 703 mmHg 83%
    17:00 +2°C° 0.1 mm 2 mps 702 mmHg 85%
    18:00 +2°C° 0.1 mm 2 mps 702 mmHg 86%
    19:00 +2°C° 0.1 mm 2 mps 701 mmHg 87%
    20:00 +2°C° 0.1 mm 2 mps 701 mmHg 87%
    21:00 +2°C° 0.8 mm 2 mps 700 mmHg 88%
    22:00 +3°C° 0.8 mm 2 mps 700 mmHg 90%
    23:00 +3°C° 0.8 mm 2 mps 699 mmHg 91%
    Show more